[[{"header":{"parameterUnit":"m.s-1","parameterCategory":1,"la1":30.2991,"la2":30.254,"lo1":-89.0895,"lo2":-89.0444,"dy":0.0017,"dx":0.0017,"nx":28,"ny":28,"refTime":"2024-12-25T03:00:00:Z","depth":0,"parameterNumber":2,"parameterNumberName":"U-component_of_WINDS"},"data":[0,0,0,0,0,0,0,0,0,0,0,0,0,0,0,0,0,0,0,0,0,0,0,0,0,0,0,0,0,0,0,0,0,0,0,0,0,0,0,0,0,0,0,0,0,0,0,0,0,0,0,0,0,0,0,0,0,0,-6.1495,-6.1495,0,-6.1519,-6.1519,-6.1519,-6.1386,-6.1382,-6.1379,-6.1375,-6.14,-6.1404,-6.1408,0,0,0,0,0,0,0,0,0,0,0,0,0,-6.1336,-6.1339,-6.1495,-6.1495,-6.1495,-6.1519,-6.1519,-6.1519,-6.1387,-6.1382,-6.1378,-6.1373,-6.1399,-6.1404,-6.1409,0,0,0,0,0,0,0,0,0,0,0,0,0,-6.1387,-6.134,-6.1495,-6.1432,-6.1427,-6.1519,-6.1519,-6.1519,-6.1388,-6.1382,-6.1376,-6.1371,-6.1397,-6.1403,-6.1409,-6.1563,0,0,-6.1429,-6.1431,0,0,0,0,0,0,0,0,-6.1384,-6.1393,-6.1441,-6.1436,-6.1431,-6.1444,-6.1472,-6.1534,-6.1389,-6.1403,-6.1375,-6.1368,-6.1419,-6.1423,-6.144,-6.1564,-6.1565,-6.1429,-6.1433,-6.1436,-6.1438,0,0,0,0,0,0,0,-6.1381,-6.1391,-6.1504,-6.1442,-6.1436,-6.1403,-6.1404,-6.1483,-6.1443,-6.1401,-6.1391,-6.1396,-6.1415,-6.1435,-6.144,-6.1565,-6.1429,-6.1435,-6.1439,-6.1441,-6.1817,-6.1823,0,0,0,0,0,0,-6.1385,-6.1389,-6.1503,-6.1505,-6.1393,-6.1411,-6.1412,-6.1445,-6.1441,-6.1435,-6.1401,-6.139,-6.1427,-6.1433,-6.144,-6.162,-6.1436,-6.1442,-6.1445,-6.1811,-6.1818,-6.1825,0,0,0,0,0,0,-6.1382,-6.1397,-6.1502,-6.1444,-6.1455,-6.142,-6.1458,-6.1449,-6.1468,-6.1441,-6.1434,-6.1428,-6.1422,-6.1431,-6.1533,-6.1619,-6.1445,-6.145,-6.1803,-6.1813,-6.1822,-6.198,0,0,0,0,0,0,-6.1378,-6.1396,-6.1454,-6.1447,-6.1459,-6.1595,-6.1463,-6.1453,-6.1479,-6.1465,-6.1465,-6.1459,-6.1419,-6.1525,-6.154,-6.1624,-6.1455,-6.1796,-6.1808,-6.1819,-6.1967,-6.1993,-6.2016,0,0,0,0,0,-6.1373,-6.1497,-6.1457,-6.1472,-6.153,-6.16,-6.1607,-6.1558,-6.1486,-6.1544,-6.1527,-6.1459,-6.1608,-6.1536,-6.1552,-6.164,-6.179,-6.1804,-6.1818,-6.1956,-6.1988,-6.2015,0,0,0,0,0,0,-6.1515,-6.1495,-6.1451,-6.1576,-6.1591,-6.1578,-6.1648,-6.1594,-6.1629,-6.1614,-6.1551,-6.1553,-6.1666,-6.1663,-6.1584,-6.1788,-6.1686,-6.1704,-6.1786,-6.1816,-6.184,-6.1838,-6.1461,0,0,0,0,0,-6.1561,-6.162,-6.1599,-6.1712,-6.1722,-6.1685,-6.1713,-6.1674,-6.1687,-6.1692,-6.1683,-6.1698,-6.1748,-6.1782,-6.1827,-6.1966,-6.1964,-6.2035,-6.2059,-6.208,-6.2095,-6.2169,-6.22,-6.1871,-6.1871,-6.187,0,0,-6.1656,-6.1653,-6.1693,-6.174,-6.1747,-6.181,-6.169,-6.1761,-6.1807,-6.1703,-6.1798,-6.1793,-6.1806,-6.1928,-6.1981,-6.1929,-6.2186,-6.2097,-6.2114,-6.2118,-6.2187,-6.2218,-6.2246,-6.188,-6.1878,-6.1877,0,0,-6.1861,-6.1865,-6.1959,-6.1969,-6.1981,-6.1956,-6.1979,-6.1975,-6.1967,-6.2062,-6.1986,-6.204,-6.2127,-6.214,-6.2158,-6.2371,-6.2309,-6.2387,-6.2515,-6.2588,-6.2614,-6.2637,-6.2713,-6.2741,-6.2403,-6.2404,-6.2404,0,-6.1978,-6.2069,-6.2015,-6.2091,-6.2114,-6.2024,-6.212,-6.2132,-6.2159,-6.2177,-6.2119,-6.2227,-6.2229,-6.2353,-6.2405,-6.2423,-6.2447,-6.2386,-6.2615,-6.2637,-6.2658,-6.2729,-6.2758,-6.2413,-6.2412,-6.2411,-6.241,0,-6.2212,-6.2276,-6.2351,-6.2379,-6.2411,-6.2497,-6.2456,-6.2495,-6.2455,-6.2436,-6.2535,-6.2535,-6.2578,-6.2605,-6.2566,-6.2724,-6.2691,-6.2626,-6.2521,-6.2699,-6.2765,-6.2792,-6.2426,-6.2423,-6.242,-6.2418,0,0,-6.2504,-6.2503,-6.2531,-6.2543,-6.2552,-6.26,-6.2683,-6.2726,-6.276,-6.2783,-6.285,-6.2927,-6.2867,-6.2887,-6.2849,-6.2913,-6.3082,-6.2839,-6.2838,-6.2884,-6.3257,-6.3305,-6.3338,-6.3043,-6.3048,-6.3052,-6.3255,0,-6.2704,-6.2844,-6.2799,-6.2941,-6.3,-6.2917,-6.2989,-6.3002,-6.2988,-6.3036,-6.302,-6.3076,-6.2992,-6.3004,-6.3064,-6.3049,-6.3156,-6.3034,-6.3105,-6.3108,-6.3102,-6.3372,-6.3424,-6.3616,-6.3281,-6.3285,-6.3288,0,-6.2955,-6.2988,-6.3136,-6.3136,-6.3159,-6.3224,-6.326,-6.3308,-6.3322,-6.3307,-6.3331,-6.328,-6.3361,-6.3259,-6.337,-6.3288,-6.3315,-6.3313,-6.3319,-6.3322,-6.3208,-6.3382,-6.3676,-6.3705,-6.3329,-6.3326,-6.3323,0,-6.3153,-6.3234,-6.3333,-6.3347,-6.3349,-6.3397,-6.34,-6.3408,-6.3437,-6.3469,-6.3488,-6.3529,-6.3552,-6.3586,-6.3547,-6.3476,-6.3665,-6.3559,-6.3654,-6.3656,-6.3696,-6.3694,-6.3997,-6.3716,-6.3716,-6.3715,-6.3715,0,-6.338,-6.3474,-6.3422,-6.3483,-6.3586,-6.3535,-6.3638,-6.3632,-6.3641,-6.3699,-6.3631,-6.3687,-6.3634,-6.3686,-6.3657,-6.3754,-6.3765,-6.3755,-6.3746,-6.376,-6.3761,-6.3775,-6.3761,-6.3723,-6.3721,-6.372,-6.3718,0,-6.3617,-6.3586,-6.3689,-6.3683,-6.3684,-6.376,-6.3756,-6.3812,-6.3794,-6.3869,-6.3884,-6.3855,-6.3913,-6.3879,-6.3938,-6.3918,-6.4044,-6.4018,-6.404,-6.4032,-6.4129,-6.412,-6.4451,-6.4492,-6.4186,-6.4189,-6.4192,0,-6.3763,-6.3833,-6.3836,-6.387,-6.3878,-6.3935,-6.3964,-6.3917,-6.3951,-6.3974,-6.4028,-6.408,-6.4119,-6.4216,-6.42,-6.4246,-6.4218,-6.4332,-6.4225,-6.4237,-6.4219,-6.4215,-6.4221,-6.4352,-6.4356,-6.4359,-6.4361,0,-6.4025,-6.4007,-6.4052,-6.4094,-6.4131,-6.4161,-6.4185,-6.4218,-6.4171,-6.4213,-6.4272,-6.4302,-6.4363,-6.4416,-6.4455,-6.4458,-6.4403,-6.4396,-6.442,-6.4434,-6.4444,-6.4439,-6.4097,-6.4388,-6.4385,-6.4383,-6.4382,-6.4381,-6.422,-6.4279,-6.429,-6.4343,-6.4357,-6.4382,-6.4435,-6.4425,-6.4473,-6.4518,-6.4488,-6.4558,-6.4572,-6.4618,-6.4629,-6.4683,-6.4638,-6.4673,-6.4682,-6.4691,-6.4704,-6.4437,-6.469,-6.469,-6.4689,-6.4688,-6.4688,0,-6.4477,-6.4481,-6.4531,-6.4568,-6.4611,-6.4556,-6.458,-6.4619,-6.4681,-6.4699,-6.474,-6.4808,-6.486,-6.485,-6.4896,-6.4942,-6.4917,-6.4955,-6.495,-6.4952,-6.4742,-6.4716,-6.4974,-6.4974,-6.4974,-6.4974,-6.4974,-6.4974,-6.4616,-6.4713,-6.4697,-6.4801,-6.4804,-6.4871,-6.489,-6.4913,-6.4927,-6.5007,-6.5049,-6.5043,-6.505,-6.5097,-6.5142,-6.5138,-6.5158,-6.5205,-6.5192,-6.4995,-6.4967,-6.494,-6.4915,-6.521,-6.5211,-6.5397,-6.5398,-6.54]},{"header":{"parameterUnit":"m.s-1","parameterCategory":1,"la1":30.2991,"la2":30.254,"lo1":-89.0895,"lo2":-89.0444,"dy":0.0017,"dx":0.0017,"nx":28,"ny":28,"refTime":"2024-12-25T03:00:00:Z","depth":0,"parameterNumber":3,"parameterNumberName":"V-component_of_WINDS"},"data":[0,0,0,0,0,0,0,0,0,0,0,0,0,0,0,0,0,0,0,0,0,0,0,0,0,0,0,0,0,0,0,0,0,0,0,0,0,0,0,0,0,0,0,0,0,0,0,0,0,0,0,0,0,0,0,0,0,0,0.3367,0.3368,0,0.3427,0.3427,0.3428,0.3499,0.35,0.3501,0.3502,0.356,0.3561,0.3561,0,0,0,0,0,0,0,0,0,0,0,0,0,0.3313,0.3313,0.3367,0.3368,0.3368,0.3427,0.3427,0.3428,0.3499,0.35,0.3502,0.3503,0.356,0.3561,0.3561,0,0,0,0,0,0,0,0,0,0,0,0,0,0.3351,0.3314,0.3367,0.3411,0.3415,0.3427,0.3428,0.3429,0.3499,0.35,0.3502,0.3503,0.356,0.3561,0.3562,0.3533,0,0,0.3564,0.3564,0,0,0,0,0,0,0,0,0.3348,0.3352,0.3403,0.3408,0.3413,0.3457,0.343,0.3464,0.3498,0.3467,0.3502,0.3504,0.3524,0.3528,0.3536,0.3536,0.3539,0.3564,0.3564,0.3565,0.3565,0,0,0,0,0,0,0,0.3346,0.335,0.339,0.3404,0.341,0.3427,0.3434,0.3437,0.3486,0.347,0.3475,0.3481,0.3527,0.3535,0.3538,0.3539,0.3564,0.3565,0.3565,0.3565,0.3523,0.3521,0,0,0,0,0,0,0.3337,0.3348,0.3389,0.3392,0.3384,0.3427,0.3435,0.3441,0.3486,0.3494,0.348,0.3484,0.3533,0.3537,0.354,0.3512,0.3565,0.3566,0.3566,0.3524,0.3522,0.352,0,0,0,0,0,0,0.3335,0.334,0.3386,0.3372,0.3379,0.3426,0.3433,0.3442,0.3449,0.3494,0.3502,0.3479,0.3534,0.3539,0.3535,0.3515,0.3566,0.3567,0.3526,0.3524,0.3521,0.3454,0,0,0,0,0,0,0.3333,0.3339,0.3328,0.3371,0.3379,0.3381,0.3431,0.3442,0.3451,0.3457,0.3495,0.3502,0.3536,0.3534,0.3536,0.3517,0.3567,0.3528,0.3525,0.3522,0.3458,0.345,0.3442,0,0,0,0,0,0.3331,0.3306,0.3328,0.3332,0.3368,0.3379,0.3384,0.3424,0.3449,0.3439,0.3468,0.3501,0.3517,0.3533,0.3536,0.3517,0.353,0.3526,0.3522,0.3462,0.3451,0.3443,0,0,0,0,0,0,0.3258,0.3312,0.3337,0.3325,0.3347,0.3391,0.338,0.3411,0.3426,0.3431,0.3479,0.3487,0.3478,0.3497,0.3514,0.3493,0.3528,0.3525,0.3481,0.3472,0.3464,0.3459,0.3568,0,0,0,0,0,0.3241,0.3247,0.3293,0.3278,0.3288,0.3332,0.3338,0.3368,0.3392,0.3402,0.343,0.3452,0.3463,0.3468,0.348,0.3462,0.3472,0.345,0.3442,0.3435,0.3432,0.3426,0.3417,0.3509,0.3509,0.3509,0,0,0.3205,0.3235,0.3235,0.3264,0.3285,0.329,0.3339,0.3341,0.3346,0.3402,0.3401,0.3423,0.3451,0.344,0.3437,0.3456,0.3409,0.3431,0.3425,0.3425,0.3421,0.3413,0.3405,0.3506,0.3507,0.3507,0,0,0.3142,0.3165,0.3156,0.3176,0.3208,0.3238,0.3236,0.3276,0.3293,0.3293,0.3336,0.3342,0.3357,0.3377,0.3388,0.3335,0.3367,0.3337,0.3295,0.3289,0.3282,0.3276,0.3258,0.3251,0.3334,0.3334,0.3334,0,0.3093,0.3102,0.3147,0.3148,0.3159,0.3212,0.3204,0.3221,0.3254,0.3261,0.3282,0.3305,0.3327,0.3324,0.3311,0.3318,0.3318,0.3333,0.3279,0.3274,0.3268,0.3252,0.3245,0.333,0.333,0.3331,0.3331,0,0.3041,0.3047,0.3036,0.3069,0.308,0.3075,0.3119,0.3125,0.3154,0.3181,0.3182,0.3211,0.3231,0.3232,0.3258,0.3232,0.3243,0.327,0.3307,0.3255,0.3241,0.3235,0.3325,0.3326,0.3327,0.3328,0,0,0.2932,0.2992,0.2987,0.3004,0.3044,0.3049,0.3048,0.3069,0.3073,0.3095,0.3095,0.3109,0.3136,0.3149,0.3179,0.3173,0.3132,0.3202,0.3204,0.3189,0.3106,0.3085,0.3077,0.3153,0.3152,0.3151,0.3104,0,0.2877,0.288,0.2921,0.2912,0.2919,0.297,0.297,0.2994,0.302,0.303,0.3059,0.3068,0.3102,0.3111,0.3107,0.3137,0.3116,0.3141,0.3154,0.3154,0.3146,0.307,0.3047,0.3001,0.3099,0.3098,0.3097,0,0.2813,0.2833,0.2825,0.2868,0.2872,0.2871,0.2895,0.2903,0.2932,0.2952,0.2968,0.3003,0.3005,0.3039,0.3043,0.306,0.3068,0.3083,0.3083,0.3086,0.3123,0.3071,0.2988,0.2981,0.3088,0.3089,0.309,0,0.2737,0.2761,0.2761,0.2773,0.2822,0.282,0.2841,0.2872,0.2882,0.2903,0.291,0.293,0.294,0.2955,0.2994,0.3015,0.2994,0.3031,0.3011,0.301,0.3004,0.3004,0.2921,0.3008,0.3008,0.3008,0.3008,0,0.2671,0.2665,0.2727,0.2726,0.2721,0.2769,0.2762,0.2787,0.2815,0.282,0.2865,0.2869,0.292,0.293,0.2961,0.296,0.2964,0.2981,0.2989,0.2977,0.2975,0.2983,0.2988,0.3006,0.3007,0.3007,0.3007,0,0.2585,0.2626,0.2629,0.2676,0.2688,0.2682,0.2723,0.2724,0.2754,0.276,0.2764,0.2811,0.2825,0.2866,0.289,0.2911,0.2902,0.2917,0.2892,0.2898,0.2876,0.2878,0.2796,0.2788,0.2878,0.2877,0.2877,0,0.2541,0.2537,0.2585,0.2593,0.2612,0.2623,0.2635,0.2682,0.2692,0.2727,0.2724,0.2742,0.2759,0.278,0.2815,0.2834,0.2851,0.2821,0.2854,0.2843,0.2852,0.2852,0.2853,0.2813,0.2812,0.2811,0.281,0,0.2459,0.248,0.2496,0.252,0.2533,0.2553,0.2576,0.2579,0.2632,0.2642,0.2658,0.2671,0.2697,0.2715,0.274,0.2761,0.2795,0.28,0.2797,0.2785,0.2771,0.278,0.2874,0.2802,0.2802,0.2803,0.2804,0.2804,0.2393,0.2393,0.2428,0.2444,0.2467,0.2488,0.2493,0.2524,0.2539,0.2564,0.2591,0.2605,0.2636,0.2674,0.2692,0.2703,0.2721,0.2715,0.2714,0.2712,0.2708,0.2769,0.2708,0.2708,0.2708,0.2709,0.2709,0,0.2315,0.234,0.2355,0.2387,0.24,0.2432,0.246,0.2469,0.2481,0.2507,0.2524,0.2543,0.2561,0.2599,0.2621,0.2623,0.2639,0.2627,0.2627,0.2632,0.269,0.2691,0.2613,0.2613,0.2613,0.2613,0.2614,0.2614,0.2276,0.2278,0.2304,0.2319,0.2344,0.2359,0.2372,0.2392,0.2414,0.2434,0.245,0.2475,0.2507,0.2531,0.2549,0.256,0.2566,0.255,0.2565,0.2618,0.2628,0.2636,0.2638,0.255,0.255,0.2507,0.2506,0.2506]}]]